Weather History for MHLM - March, 2013

Change the Weather History Date:

Tuesday, March 5, 2013

  Actual Average Record
Temperature  
Mean Temperature 72 °F -  
Max Temperature 82 °F 88 °F 96 °F (1998)
Min Temperature 62 °F 70 °F 62 °F (2009)
Cooling Degree Days 7    
Growing Degree Days 22 (Base 50)    
Moisture  
Dew Point 66 °F    
Average Humidity 79    
Maximum Humidity 100    
Minimum Humidity 50    
Precipitation  
Precipitation 0.00 in 0.04 in - ()
Sea Level Pressure  
Sea Level Pressure 30.01 in    
Wind  
Wind Speed 3 mph ()    
Max Wind Speed 12 mph    
Max Gust Speed -    
Visibility 6.4 miles    
Events      
Averages and records for this station are not official NWS values.
T = Trace of Precipitation, MM = Missing Value Source: Averaged Metar Reports

Daily Weather History Graph

Daily Weather History Graph

Search for Another Location

Airport or City:

Trip Planner

Search our weather history database for the weather conditions in past years. The results will help you decide how hot, cold, wet, or windy it might be!

Date:

Astronomy

Mar. 05, 2013 Rise Set
Actual Time 6:06 AM CST 6:00 PM CST
Civil Twilight 5:44 AM CST 6:21 PM CST
Nautical Twilight 5:19 AM CST 6:46 PM CST
Astronomical Twilight 4:54 AM CST 7:11 PM CST
Moon 12:39 AM CST 12:18 PM CST
Length of Visible Light 12h 37m
Length of Day
11h 54m
Last Quarter, 40% of the Moon is Illuminated
Mar 5
Last Quarter
Mar 11
New
Mar 19
First Quarter
Mar 27
Full
Apr 2
Last Quarter

Hourly Weather History & Observations

Time (CST) Temp. Heat Index Dew Point Humidity Pressure Visibility Wind Dir Wind Speed Gust Speed Precip Events Conditions
12:00 AM 66 °F - 65 °F 94% 30.07 in 6 mi Calm Calm - -   Haze
12:00 AM 66.2 °F - 64.4 °F 94% 30.06 in 6.2 mi Calm Calm - N/A   Mostly Cloudy
1:00 AM 64.4 °F - 64.4 °F 100% 30.06 in 6.2 mi Calm Calm - N/A   Mostly Cloudy
2:00 AM 62.6 °F - 62.6 °F 100% 30.04 in 6.2 mi Calm Calm - N/A   Mostly Cloudy
3:00 AM 66 °F - 65 °F 94% 30.01 in 6 mi Calm Calm - -   Haze
3:00 AM 66.2 °F - 64.4 °F 94% 30.01 in 6.2 mi Calm Calm - N/A   Mostly Cloudy
4:00 AM 66.2 °F - 64.4 °F 94% 30.01 in 6.2 mi Calm Calm - N/A   Mostly Cloudy
6:00 AM 64.4 °F - 64.4 °F 100% 30.04 in 6.2 mi South 4.6 mph - N/A   Mostly Cloudy
10:00 AM 73.4 °F - 66.2 °F 78% 30.06 in 6.2 mi SSW 4.6 mph - N/A   Mostly Cloudy
11:00 AM 77.0 °F - 66.2 °F 69% 30.06 in 6.2 mi Calm Calm - N/A   Scattered Clouds
12:00 PM 80 °F - 64 °F 50% 30.03 in 9 mi East 4.6 mph - -   Haze
12:00 PM 80.6 °F 82.3 °F 64.4 °F 58% 30.04 in 6.2 mi North 6.9 mph - N/A   Scattered Clouds
1:00 PM 82.4 °F 84.6 °F 66.2 °F 58% 29.98 in 6.2 mi NE 6.9 mph - N/A   Mostly Cloudy
2:00 PM 82.4 °F 84.6 °F 66.2 °F 58% 29.95 in 6.2 mi North 11.5 mph - N/A   Mostly Cloudy
3:00 PM 82 °F - 66 °F 50% 29.94 in 9 mi NNE 11.5 mph - -   Haze
3:00 PM 82.4 °F 84.6 °F 66.2 °F 58% 29.92 in 6.2 mi NNE 11.5 mph - N/A   Mostly Cloudy
4:00 PM 80.6 °F 83.2 °F 68.0 °F 65% 29.92 in 6.2 mi NNE 11.5 mph - N/A   Mostly Cloudy
5:00 PM 78.8 °F - 68.0 °F 69% 29.95 in 6.2 mi North 9.2 mph - N/A   Mostly Cloudy
6:00 PM 77.0 °F - 68.0 °F 74% 29.98 in 6.2 mi North 9.2 mph - N/A   Mostly Cloudy
7:00 PM 73.4 °F - 68.0 °F 83% 30.01 in 6.2 mi North 5.8 mph - N/A   Mostly Cloudy
8:00 PM 71.6 °F - 68.0 °F 88% 30.01 in 6.2 mi NNW 4.6 mph - N/A   Partly Cloudy
9:00 PM 71.6 °F - 68.0 °F 88% 30.04 in 6.2 mi NNW 4.6 mph - N/A   Partly Cloudy
10:00 PM 71.6 °F - 68.0 °F 88% 30.06 in 6.2 mi North 3.5 mph - N/A   Partly Cloudy
11:00 PM 69.8 °F - 68.0 °F 94% 30.06 in 6.2 mi Calm Calm - N/A   Partly Cloudy